Regional Weather Roundup
Issued by NWS Albany, NY

Home | Current Version | Previous Version | Text Only | Print | Product List | Glossary On
Versions: 1 2 3 4 5 6 7 8 9 10 11 12 13 14 15 16 17 18 19 20 21 22 23 24 25 26 27 28 29 30 31 32 33 34 35 36 37 38 39 40 41 42 43 44 45 46 47 48 49 50
000
ASUS41 KALY 031610
RWRALY

NEW YORK STATE HOURLY WEATHER ROUNDUP
NATIONAL WEATHER SERVICE ALBANY NY
1100 AM EST TUE MAR 03 2015

NOTE: "FAIR" INDICATES FEW OR NO CLOUDS BELOW 12,000 FEET WITH NO
SIGNIFICANT WEATHER AND/OR NO OBSTRUCTIONS TO VISIBILITY.

NYZ032-033-038>043-046>054-057>066-NYZ062>081-031700-
EAST


CITY           SKY/WX    TMP DP  RH WIND       PRES   REMARKS
ALBANY         CLOUDY    21   8  57 S7        30.37F WCI  12
GLENS FALLS    CLOUDY    20   5  52 S8        30.35F WCI  10
POUGHKEEPSIE   CLOUDY    27   8  44 CALM      30.39F
NEWBURGH       CLOUDY    27  12  54 CALM      30.37F
MONTGOMERY     CLOUDY    25   9  50 CALM      30.36F
WHITE PLAINS   CLOUDY    25   8  48 VRB5      30.38F WCI  19
ISLIP          CLOUDY    29   8  41 CALM      30.40F
NEW YORK CITY  CLOUDY    29  10  45 SE9       30.41F WCI  20
CENTRAL PARK   CLOUDY    30   8  39 VRB6      30.42F WCI  24
$$

NYZ005>009-017-018-044>046-055-056-031700-
CENTRAL


CITY           SKY/WX    TMP DP  RH WIND       PRES   REMARKS
FULTON         CLOUDY    18   8  65 SE7       30.25F WCI   9
SYRACUSE       CLOUDY    19  11  73 SE8       30.25F WCI   8
ROME           CLOUDY    18   9  68 E7        30.31F WCI   9
ELMIRA         CLOUDY    20  11  68 N3        30.23F
BINGHAMTON     CLOUDY    17   9  70 SE13      30.18F WCI   4
MONTICELLO     CLOUDY    21  10  63 CALM      30.28F
$$

NYZ026>034-041>043-031700-
NORTH


CITY           SKY/WX    TMP DP  RH WIND       PRES   REMARKS
WATERTOWN      CLOUDY    24   9  52 S6        30.26F WCI  17
FORT DRUM      NOT AVBL
MASSENA        MOSUNNY   21   5  50 S6        30.28F WCI  13
SARANAC LAKE   PTSUNNY   16   4  59 SW3       30.16F
PLATTSBURGH    MOSUNNY   18   2  49 SE14      30.32F WCI   4
$$

NYZ001>004-010>016-019>021-031700-
WEST


CITY           SKY/WX    TMP DP  RH WIND       PRES   REMARKS
NIAGARA FALLS  LGT SNOW  19  12  74 S8        30.14F VSB 1   WCI   9
BUFFALO        LGT SNOW  19  14  81 S7        30.14F VSB 3/4 WCI  10
DUNKIRK        CLOUDY    21  15  78 VRB3      30.12F
JAMESTOWN      CLOUDY    18  12  79 S10       30.06F WCI   6
WELLSVILLE     CLOUDY    20   6  55 S6        30.11F WCI  12
ROCHESTER      CLOUDY    22   9  57 S8        30.19F WCI  12
PENN YAN       CLOUDY    20  10  65 S9        30.20F WCI   9
$$

             KEY
       WCI = WIND CHILL INDEX
       VSB = VISIBILITY
       HX  = HEAT INDEX
$$


USA.gov is the U.S. government's official web portal to all federal, state and local government web resources and services.